Location: Unspecified
(0.0000°N, 0.0000°E)
Time: 05:42:47
(UTC+00:00)

Transit 2A - Pass Details

Date: 09 October 2020
Orbit: 593 x 966 km, 66.7° (Epoch: 28 October)

Event Time Altitude Azimuth Distance (km) Brightness Sun altitude
Rises 05:18:34 0° 236° (SW) 3,381 8.9 -7.1°
Reaches altitude 10° 05:22:02 10° 258° (WSW) 2,517 8.1 -6.3°
Maximum altitude 05:25:19 15° 292° (WNW) 2,213 7.8 -5.4°
Drops below altitude 10° 05:28:44 10° 326° (NNW) 2,623 8.4 -4.6°
Sets 05:32:30 0° 348° (NNW) 3,606 9.3 -3.7°
